(157572) = 2005 UV191

Discovered at Mount Lemmon on 2005-10-27 by Mt. Lemmon Survey.

Orbit

Orbit type: Main Belt

Note: WebGL enabled browser required.

epoch2023-09-13.0
epoch JD2460200.5
perihelion date2023-06-19.47601
perihelion JD2460114.97601
argument of perihelion (°)138.05817
ascending node (°)38.59662
inclination (°)4.82319
eccentricity0.1054358
perihelion distance (AU)2.2858696
Tisserand w.r.t. Jupiter3.4
ΔV w.r.t. Earth (km/sec)9.6
semimajor axis (AU)2.5552885
mean anomaly (°)20.63630
mean daily motion (°/day)0.24129260
aphelion distance (AU)2.825
period (years)4.08
P-vector [x]-0.99681960
P-vector [y]0.02948546
P-vector [z]0.07403575
Q-vector [x]-0.05999503
Q-vector [y]-0.88915242
Q-vector [z]-0.45366130
absolute magnitude16.66
phase slope0.15
uncertainty0
referenceMPEC 2023-X02
observations used426
oppositions16
arc length (days)8762
first opposition used1999
last opposition used2023
residual rms (arc-secs)0.79
perturbers coarse indicatorM-v
perturbers precise indicator003Ek
first observation date used1999-04-18.0
last observation date used2023-04-14.0
computer nameMPCLINUX
JD of orbit computation2456670.634242
perihelion JD uncertainty (days)1.4795E-04
argument of perihelion uncertainty (°)7.7673E-05
ascending node uncertainty (°)6.5731E-05
inclination uncertainty (°)9.2022E-06
eccentricity uncertainty 1.0913E-07
perihelion distance uncertainty (AU)2.8634E-07
Minimum Orbit Intersection Distances (in AU)
for orbit epoch: 2460200.5, reference: E2023-X02
Mercury1.88095
Venus1.56597
Earth1.2909
Mars0.63004
Jupiter2.13434
Saturn6.45598
Uranus16.1582
Neptune27.0408

Observations

443 total observations over interval: 1999 04 18.33407 – 2023 04 14.203771
These data are available for download (format description).

Date (UT) J2000 RA J2000 Dec Magn Location Ref
1999 04 18.33407 14 27 03.67 -13 48 06.6 19.2 V 691 – Steward Observatory, Kitt Peak-Spacewatch MPS 178550
1999 04 18.35548 14 27 02.45 -13 48 04.0 19.5 V 691 – Steward Observatory, Kitt Peak-Spacewatch MPS 178550
1999 04 18.37739 14 27 01.21 -13 48 01.2 19.5 V 691 – Steward Observatory, Kitt Peak-Spacewatch MPS 178550
2001 11 19.31041 04 26 45.62 +25 03 31.1 20.7   704 – Lincoln Laboratory ETS, New Mexico MPS 178550
2001 11 19.33975 04 26 43.65 +25 03 30.5 20.3   704 – Lincoln Laboratory ETS, New Mexico MPS 178550
2001 11 19.35442 04 26 42.76 +25 03 29.0 20.5   704 – Lincoln Laboratory ETS, New Mexico MPS 178550
2001 12 18.22306 03 56 58.57 +24 30 58.0 20.0   704 – Lincoln Laboratory ETS, New Mexico MPS 178550
2001 12 18.23821 03 56 57.69 +24 30 56.4 19.7   704 – Lincoln Laboratory ETS, New Mexico MPS 178550
2001 12 18.25336 03 56 56.92 +24 30 55.3 20.1   704 – Lincoln Laboratory ETS, New Mexico MPS 178550
2001 12 18.26850 03 56 56.09 +24 30 54.7 20.1   704 – Lincoln Laboratory ETS, New Mexico MPS 178550
2003 04 01.34913 13 43 49.58 -07 51 36.6 18.8   704 – Lincoln Laboratory ETS, New Mexico MPS 178550
2003 04 01.36075 13 43 49.02 -07 51 34.4 18.8   704 – Lincoln Laboratory ETS, New Mexico MPS 178550
2003 04 01.37233 13 43 48.49 -07 51 33.5 19.0   704 – Lincoln Laboratory ETS, New Mexico MPS 178550
2003 04 29.25006 13 18 43.28 -06 38 28.9 19.6 V 691 – Steward Observatory, Kitt Peak-Spacewatch MPS 178550
2003 04 29.27831 13 18 41.86 -06 38 25.7 19.7 V 691 – Steward Observatory, Kitt Peak-Spacewatch MPS 178550
2003 04 29.30795 13 18 40.38 -06 38 22.2 20.5 V 691 – Steward Observatory, Kitt Peak-Spacewatch MPS 178550
2003 05 06.16580 13 13 36.34 -06 27 52.0 20.2 V 691 – Steward Observatory, Kitt Peak-Spacewatch MPS 178550
2003 05 06.19231 13 13 35.22 -06 27 50.2 19.8 V 691 – Steward Observatory, Kitt Peak-Spacewatch MPS 178550
2003 05 06.22035 13 13 34.05 -06 27 48.2 19.9 V 691 – Steward Observatory, Kitt Peak-Spacewatch MPS 178550
2005 10 27.39620 04 00 37.87 +22 21 02.2 20.2 V G96 – Mt. Lemmon Survey MPS 149817
2005 10 27.40405 04 00 37.51 +22 21 02.4 20.1 V G96 – Mt. Lemmon Survey MPS 149817
2005 10 27.41160 04 00 37.15 +22 21 02.5 20.0 V G96 – Mt. Lemmon Survey MPS 149817
2005 10 27.41927 04 00 36.86 +22 21 01.9 20.1 V G96 – Mt. Lemmon Survey MPS 149817
2005 10 28.30709 03 59 57.14 +22 20 59.1 20.3 V 691 – Steward Observatory, Kitt Peak-Spacewatch MPS 149817
2005 10 28.32459 03 59 56.32 +22 20 59.1 20.4 V 691 – Steward Observatory, Kitt Peak-Spacewatch MPS 149817
2005 10 28.34225 03 59 55.48 +22 20 58.9 21.0 V 691 – Steward Observatory, Kitt Peak-Spacewatch MPS 149817
2005 12 10.08163 03 18 47.09 +21 18 43.6 20.4 V 691 – Steward Observatory, Kitt Peak-Spacewatch MPS 178550
2005 12 10.09186 03 18 46.55 +21 18 42.5 20.3 V 691 – Steward Observatory, Kitt Peak-Spacewatch MPS 178550
2005 12 10.10201 03 18 46.07 +21 18 41.7 20.7 V 691 – Steward Observatory, Kitt Peak-Spacewatch MPS 178550
2007 03 10.42363 13 02 16.80 -01 36 24.6 19.5 V G96 – Mt. Lemmon Survey MPS 203105
2007 03 10.43244 13 02 16.44 -01 36 23.1 19.3 V G96 – Mt. Lemmon Survey MPS 203105
2007 03 10.44112 13 02 16.08 -01 36 21.6 19.5 V G96 – Mt. Lemmon Survey MPS 203105
2007 03 10.44991 13 02 15.75 -01 36 20.1 19.4 V G96 – Mt. Lemmon Survey MPS 203105
2007 03 10.48671 13 02 14.28 -01 36 13.8 19.7 V G96 – Mt. Lemmon Survey MPS 203105
2007 03 10.49081 13 02 14.13 -01 36 12.8 20.0 V G96 – Mt. Lemmon Survey MPS 203105
2007 03 10.49495 13 02 13.95 -01 36 12.4 19.7 V G96 – Mt. Lemmon Survey MPS 203105
2007 03 10.49912 13 02 13.81 -01 36 11.7 19.1 V G96 – Mt. Lemmon Survey MPS 203105
2007 03 15.31618 12 58 56.71 -01 21 24.5 20.3 V 691 – Steward Observatory, Kitt Peak-Spacewatch MPS 203105
2007 03 15.33381 12 58 55.89 -01 21 21.1 19.9 V 691 – Steward Observatory, Kitt Peak-Spacewatch MPS 203105
2007 03 15.35144 12 58 55.06 -01 21 17.6 19.7 V 691 – Steward Observatory, Kitt Peak-Spacewatch MPS 203105
2007 03 16.37105 12 58 09.19 -01 17 56.0 19.2 C 704 – Lincoln Laboratory ETS, New Mexico MPS 291341
2007 03 16.38190 12 58 08.72 -01 17 54.2 18.9 C 704 – Lincoln Laboratory ETS, New Mexico MPS 291341
2007 03 16.40366 12 58 07.66 -01 17 50.0 19.1 C 704 – Lincoln Laboratory ETS, New Mexico MPS 291341
2007 04 07.30068 12 38 47.36 -00 02 54.8 19.4 V 703 – Catalina Sky Survey MPS 206193
2007 04 07.30828 12 38 47.00 -00 02 54.8 19.8 V 703 – Catalina Sky Survey MPS 206193
2007 04 07.31588 12 38 46.50 -00 02 52.2 19.2 V 703 – Catalina Sky Survey MPS 206193
2007 04 07.32345 12 38 46.06 -00 02 52.6 19.4 V 703 – Catalina Sky Survey MPS 206193
2007 04 16.28952 12 31 03.90 +00 19 32.3 19.0 V 703 – Catalina Sky Survey MPS 206938
2007 04 16.29706 12 31 03.46 +00 19 33.7 19.1 V 703 – Catalina Sky Survey MPS 206938
2007 04 16.30465 12 31 03.07 +00 19 34.8 18.8 V 703 – Catalina Sky Survey MPS 206938
2007 04 16.31245 12 31 02.71 +00 19 34.6 19.0 V 703 – Catalina Sky Survey MPS 206938
2007 04 25.18100 12 24 46.90 +00 31 06.8 19.8 V G96 – Mt. Lemmon Survey MPS 208098
2007 04 25.18598 12 24 46.72 +00 31 06.9 19.9 V G96 – Mt. Lemmon Survey MPS 208098
2007 04 25.19095 12 24 46.51 +00 31 07.1 20.3 V G96 – Mt. Lemmon Survey MPS 208098
2007 04 25.19594 12 24 46.33 +00 31 07.3 20.7 V G96 – Mt. Lemmon Survey MPS 208098
2007 05 09.24354 12 18 50.58 +00 23 14.6 20.3 V 703 – Catalina Sky Survey MPS 210092
2007 05 09.25412 12 18 50.29 +00 23 13.5 19.4 V 703 – Catalina Sky Survey MPS 210092
2007 05 09.26337 12 18 50.29 +00 23 10.8 19.7 V 703 – Catalina Sky Survey MPS 210092
2007 05 09.27263 12 18 50.11 +00 23 11.4 19.2 V 703 – Catalina Sky Survey MPS 210092
2009 10 18.40929 03 23 49.16 +19 12 59.2 20.8 V G96 – Mt. Lemmon Survey MPS 300412
2009 10 18.41806 03 23 48.76 +19 12 58.6 21.7 V G96 – Mt. Lemmon Survey MPS 300412
2009 10 18.42681 03 23 48.33 +19 12 58.4 21.3 V G96 – Mt. Lemmon Survey MPS 300412
2009 10 18.43562 03 23 47.94 +19 12 57.6 20.9 V G96 – Mt. Lemmon Survey MPS 300412
2009 11 08.38537 03 04 50.26 +18 37 47.1 20.3 V G96 – Mt. Lemmon Survey MPS 303051
2009 11 08.39108 03 04 49.90 +18 37 46.3 20.4 V G96 – Mt. Lemmon Survey MPS 303051
2009 11 08.39668 03 04 49.58 +18 37 45.6 19.9 V G96 – Mt. Lemmon Survey MPS 303051
2009 11 08.40243 03 04 49.18 +18 37 44.6 19.9 V G96 – Mt. Lemmon Survey MPS 303051
2009 11 22.28250 02 50 56.76 +18 02 38.7 20.7 V G96 – Mt. Lemmon Survey MPS 306429
2009 11 22.28841 02 50 56.43 +18 02 37.7 20.3 V G96 – Mt. Lemmon Survey MPS 306429
2009 11 22.29432 02 50 56.07 +18 02 36.7 20.2 V G96 – Mt. Lemmon Survey MPS 306429
2009 11 22.30008 02 50 55.75 +18 02 35.6 20.2 V G96 – Mt. Lemmon Survey MPS 306429
2009 11 23.21861 02 50 04.16 +18 00 15.1 19.9 V 703 – Catalina Sky Survey MPS 306429
2009 11 23.22529 02 50 03.87 +18 00 13.4 20.2 V 703 – Catalina Sky Survey MPS 306429
2009 11 23.23202 02 50 03.48 +18 00 13.2 20.0 V 703 – Catalina Sky Survey MPS 306429
2009 11 23.23876 02 50 03.04 +18 00 11.9 19.7 V 703 – Catalina Sky Survey MPS 306429
2010 12 13.50248 11 46 25.45 +06 47 47.8   291 – LPL/Spacewatch II MPS 362182
2010 12 13.50619 11 46 25.72 +06 47 46.2   291 – LPL/Spacewatch II MPS 362182
2010 12 13.51506 11 46 26.32 +06 47 42.6   291 – LPL/Spacewatch II MPS 362182
2011 02 25.28459 12 15 15.89 +04 56 25.0 19.9 V 691 – Steward Observatory, Kitt Peak-Spacewatch MPS 371832
2011 02 25.30237 12 15 15.22 +04 56 28.7 20.5 V 691 – Steward Observatory, Kitt Peak-Spacewatch MPS 371832
2011 02 25.32014 12 15 14.50 +04 56 32.9 20.2 V 691 – Steward Observatory, Kitt Peak-Spacewatch MPS 371832
2011 03 01.36790 12 12 34.81 +05 12 10.9 19.8   704 – Lincoln Laboratory ETS, New Mexico MPS 373151
2011 03 01.38223 12 12 34.11 +05 12 12.6 20.2   704 – Lincoln Laboratory ETS, New Mexico MPS 373151
2011 03 01.39634 12 12 33.46 +05 12 17.7 19.6   704 – Lincoln Laboratory ETS, New Mexico MPS 373151
2011 03 01.40983 12 12 32.88 +05 12 19.3 19.6   704 – Lincoln Laboratory ETS, New Mexico MPS 373151
2011 03 04.38446 12 10 21.25 +05 24 31.0 19.8 V 703 – Catalina Sky Survey MPS 373151
2011 03 04.39553 12 10 20.67 +05 24 33.1 19.5 V 703 – Catalina Sky Survey MPS 373151
2011 03 04.40660 12 10 20.13 +05 24 37.0 19.7 V 703 – Catalina Sky Survey MPS 373151
